Temp
14 14 13 12 14 14 14 14 14 14 13 12 12 12 12 12 11 11 11 10 10 9 10 9 10 10 10 11 10 11 11 11 10
14 14 14 13 12 15 15 14 14 15 14 13 12 13 12 12 12 11 11 11 11 11 10 9 9 10 11 11 11 11 11 11 11
16 14 13 11 13 14 15 15 15 14 14 14 13 13 12 12 13 12 11 11 11 12 11 10 11 12 11 11 11 11 11 11 11
16 14 12 10 11 13 15 15 15 15 15 15 14 13 13 13 12 12 12 12 12 12 12 11 11 12 12 12 12 12 12 11 12
16 16 14 11 11 12 13 15 15 15 15 15 15 14 14 14 13 12 12 12 12 12 12 12 12 12 12 12 12 12 12 12 12
17 16 15 15 13 13 13 15 15 16 15 15 15 14 14 14 14 13 13 13 13 13 12 12 13 12 13 12 12 12 12 12 12
17 16 16 16 15 12 14 15 16 16 16 15 15 15 14 15 15 15 14 13 13 13 13 13 13 13 13 13 12 12 12 12 12
16 16 16 16 16 15 14 15 16 16 16 16 15 15 15 15 15 15 14 14 14 13 13 13 13 13 13 13 13 13 13 12 12
14 15 15 15 15 15 15 12 15 15 15 16 16 16 16 15 14 14 15 14 14 14 13 13 13 13 13 13 13 13 13 12 12
12 13 13 14 14 14 13 14 12 14 14 14 15 16 16 16 15 14 14 14 14 14 14 13 13 13 13 13 14 13 13 13 13
10 9 11 12 13 13 11 11 9 12 14 14 15 16 16 16 16 15 14 14 14 14 14 14 13 13 13 13 14 13 13 13 13
7 8 9 10 11 12 13 13 12 12 12 15 15 16 16 16 16 16 15 14 14 13 13 13 13 13 13 14 14 14 13 12 13
6 7 8 11 12 12 13 13 13 13 13 12 16 16 17 17 16 16 16 15 14 14 13 13 13 13 14 14 13 13 13 13 12
7 7 6 8 11 11 12 13 13 14 13 15 16 16 16 16 16 17 16 15 15 14 14 13 13 13 13 13 13 13 13 13 13
6 7 7 9 10 11 11 12 13 14 14 14 15 16 17 16 17 16 16 16 15 15 14 13 13 13 13 13 14 13 13 13 13
6 6 8 8 9 10 11 12 12 14 14 14 15 15 16 16 16 17 16 16 16 15 15 14 13 13 13 13 13 14 14 13 13
6 7 7 9 10 11 11 12 11 13 14 15 15 15 16 16 16 17 17 16 16 15 15 14 13 13 13 12 12 13 14 14 14
3 5 7 8 9 10 11 11 11 12 14 14 15 15 16 16 16 16 17 16 17 16 15 14 14 13 13 13 13 13 13 14 14
3 4 6 9 9 10 10 11 11 12 12 13 15 15 15 16 16 16 17 17 16 16 15 14 13 13 13 13 14 15 14 14 15
3 4 5 5 7 8 8 9 9 9 10 10 12 13 15 16 16 16 16 17 16 16 15 14 14 13 13 14 14 14 14 14 14
Height
3139 3141 3148 3151 3152 3157 3161 3165 3169 3174 3180 3186 3190 3194 3200 3205 3211 3214 3217 3220 3224 3226 3228 3229 3232 3234 3237 3239 3240 3242 3243 3244 3245
3123 3134 3141 3152 3151 3154 3157 3161 3165 3170 3176 3182 3187 3192 3197 3200 3207 3210 3213 3218 3221 3224 3228 3229 3231 3233 3235 3238 3239 3241 3243 3244 3245
3124 3133 3135 3139 3154 3152 3154 3159 3163 3166 3170 3177 3183 3187 3192 3197 3202 3207 3211 3214 3218 3221 3225 3228 3228 3231 3234 3236 3239 3240 3241 3243 3244
3116 3116 3124 3124 3139 3153 3152 3155 3158 3163 3167 3171 3177 3182 3187 3192 3196 3201 3206 3210 3213 3218 3222 3226 3227 3229 3232 3234 3236 3238 3240 3241 3243
3108 3114 3122 3132 3126 3136 3148 3149 3153 3158 3162 3167 3172 3177 3181 3186 3192 3196 3199 3203 3209 3213 3217 3220 3224 3226 3230 3232 3234 3236 3238 3239 3240
3109 3105 3114 3116 3116 3128 3136 3141 3147 3152 3157 3162 3166 3171 3176 3180 3185 3190 3194 3198 3202 3207 3212 3216 3220 3223 3225 3228 3231 3233 3236 3237 3238
3113 3115 3115 3120 3118 3113 3128 3131 3140 3146 3151 3156 3161 3165 3170 3174 3178 3184 3189 3194 3197 3200 3206 3210 3214 3218 3222 3224 3227 3229 3232 3234 3235
3111 3114 3118 3120 3123 3126 3121 3124 3134 3141 3146 3151 3155 3159 3164 3168 3173 3178 3183 3187 3192 3195 3199 3205 3209 3213 3216 3219 3221 3224 3227 3230 3233
3102 3110 3112 3113 3117 3122 3117 3122 3131 3138 3142 3146 3150 3154 3158 3164 3168 3172 3176 3181 3185 3189 3193 3198 3203 3206 3209 3213 3215 3219 3222 3225 3227
3099 3101 3106 3108 3109 3115 3117 3110 3118 3132 3139 3143 3144 3150 3153 3157 3162 3167 3171 3175 3179 3182 3186 3191 3196 3200 3204 3206 3210 3213 3216 3219 3222
3094 3090 3097 3101 3103 3104 3111 3101 3104 3131 3134 3138 3141 3143 3147 3152 3156 3161 3165 3169 3172 3176 3179 3184 3189 3194 3198 3201 3204 3208 3210 3213 3215
3087 3089 3081 3092 3100 3104 3108 3112 3116 3122 3130 3132 3136 3137 3141 3146 3150 3155 3159 3163 3167 3171 3174 3178 3182 3187 3191 3194 3198 3202 3205 3207 3209
3081 3086 3087 3089 3094 3099 3105 3113 3117 3117 3119 3124 3127 3132 3136 3140 3144 3149 3153 3158 3162 3166 3169 3173 3177 3181 3184 3188 3191 3195 3199 3202 3203
3081 3082 3081 3086 3090 3093 3097 3101 3106 3110 3114 3115 3121 3126 3130 3132 3137 3143 3147 3153 3157 3160 3163 3167 3170 3173 3176 3179 3183 3187 3191 3194 3196
3077 3078 3080 3081 3084 3087 3089 3089 3092 3098 3104 3110 3114 3116 3121 3125 3130 3135 3139 3144 3149 3154 3157 3159 3162 3166 3168 3171 3175 3179 3182 3186 3189
3068 3071 3075 3076 3077 3079 3082 3085 3087 3090 3096 3102 3106 3109 3113 3119 3122 3127 3131 3136 3141 3145 3149 3152 3155 3158 3162 3164 3168 3171 3175 3179 3182
3061 3064 3064 3065 3069 3071 3075 3078 3080 3082 3088 3093 3097 3102 3105 3110 3115 3119 3123 3127 3131 3136 3141 3144 3148 3151 3154 3158 3161 3164 3167 3171 3174
3052 3056 3060 3060 3063 3065 3068 3070 3072 3075 3079 3084 3089 3094 3097 3101 3106 3111 3114 3118 3122 3127 3132 3137 3141 3144 3148 3150 3154 3157 3159 3161 3167
3048 3049 3051 3052 3052 3057 3060 3063 3066 3067 3070 3075 3078 3083 3088 3091 3097 3101 3106 3108 3112 3117 3124 3129 3134 3138 3140 3143 3145 3149 3152 3155 3159
3040 3041 3043 3046 3048 3051 3054 3056 3056 3059 3061 3065 3068 3072 3076 3081 3085 3091 3095 3099 3103 3109 3116 3121 3125 3131 3133 3136 3140 3144 3148 3150 3153
Wind_Speed
43 35 33 34 27 20 17 18 20 22 24 25 28 29 29 27 25 25 22 19 16 20 11 6 7 9 7 6 5 4 3 2 4
35 38 37 33 33 25 20 19 16 19 21 24 26 26 29 29 28 28 26 23 20 19 15 14 17 11 9 8 7 7 7 4 3
30 44 49 34 38 30 24 22 18 16 17 22 24 27 27 29 28 29 29 26 24 21 18 18 17 12 12 10 9 9 8 7 6
30 22 42 40 37 31 25 25 26 23 19 15 24 26 27 28 31 31 31 30 28 25 22 20 22 15 12 12 11 10 10 10 9
35 18 24 33 36 40 33 28 27 25 24 23 17 22 27 27 29 32 33 33 31 29 27 24 23 20 16 15 13 12 11 12 12
24 24 21 19 18 44 41 28 27 27 27 23 23 23 21 27 28 31 32 34 33 32 30 28 24 23 21 17 16 15 14 13 15
28 21 22 25 22 33 36 27 27 25 28 29 25 24 25 19 26 27 29 31 33 32 31 30 27 24 23 21 20 19 17 16 16
16 25 24 31 32 29 35 30 31 28 28 27 28 27 25 21 18 25 27 29 31 33 33 32 30 27 26 24 23 22 20 18 18
8 19 21 18 21 36 44 31 32 27 23 26 29 26 23 25 25 24 23 28 29 32 34 33 32 31 29 27 26 23 22 20 20
4 5 15 25 17 13 29 42 47 27 24 24 31 30 27 25 27 26 26 23 27 30 32 33 33 33 32 30 27 25 24 22 21
18 4 13 22 29 28 13 15 31 25 31 27 27 32 33 29 26 25 27 29 26 27 30 33 34 33 32 32 29 27 26 25 24
28 22 20 23 28 29 31 31 28 28 30 32 26 30 33 33 31 27 24 28 30 27 28 30 33 33 32 32 30 28 27 28 27
38 30 23 23 31 31 27 29 37 35 35 33 34 28 29 33 34 32 28 24 25 28 27 27 30 31 31 31 31 29 27 28 29
31 32 22 24 23 22 22 27 28 34 43 43 37 30 30 33 38 34 33 31 27 23 21 25 30 30 30 31 31 29 28 27 29
40 38 33 30 27 26 24 25 34 34 35 36 38 38 34 34 36 39 38 35 34 30 27 23 25 29 29 29 28 28 29 28 31
38 37 37 32 29 28 32 28 32 39 37 37 37 39 41 35 36 40 43 40 39 36 33 30 26 26 27 27 26 28 29 30 31
47 49 47 42 33 33 32 31 31 36 41 40 42 42 44 43 37 37 38 44 42 42 37 34 32 30 30 29 29 29 29 31 31
35 39 42 44 45 45 36 35 35 37 39 42 43 45 48 49 42 38 36 43 46 43 41 35 33 32 33 35 35 33 34 32 27
35 38 37 42 45 42 38 36 36 41 40 43 46 48 50 51 47 42 39 38 47 47 43 38 35 32 34 33 32 32 31 30 26
39 39 36 41 43 39 35 34 36 34 38 38 46 49 55 54 53 49 45 40 46 47 44 39 38 34 33 30 29 27 24 24 25
Wind_Direction
196 198 202 208 210 209 204 213 223 224 218 217 217 213 216 216 215 220 219 225 224 225 222 242 224 222 209 218 233 220 224 158 125
216 188 190 219 218 213 208 208 219 227 222 214 221 225 219 221 216 221 226 226 226 229 235 210 240 240 240 237 229 228 226 213 181
244 232 227 216 225 218 213 207 210 210 218 216 217 222 226 225 224 221 228 229 229 232 225 232 250 231 227 242 234 233 226 219 209
244 276 217 214 195 226 217 212 211 215 210 209 215 221 224 224 223 223 227 230 232 229 230 227 244 250 246 242 246 236 236 237 224
236 235 215 225 218 190 232 217 212 214 214 217 213 219 225 224 226 224 224 232 232 234 232 232 229 245 240 247 247 243 239 245 250
245 239 212 262 228 192 217 221 218 216 213 211 217 216 224 223 224 225 226 227 233 233 235 235 233 234 243 242 248 247 243 240 249
224 234 240 242 235 215 216 228 227 218 219 215 216 216 219 226 224 228 228 228 231 233 233 236 237 236 240 245 245 247 247 242 245
236 226 228 230 229 215 216 225 234 218 220 219 218 219 218 219 222 225 228 230 230 234 234 234 236 237 239 241 244 244 246 246 246
213 221 222 210 214 228 224 220 235 218 219 221 222 221 220 221 221 220 227 230 231 230 235 235 234 235 236 238 242 246 247 245 249
253 185 217 221 203 194 216 231 198 242 239 226 220 223 220 221 226 227 227 228 230 234 230 234 235 236 237 238 239 243 247 248 246
239 252 221 216 214 201 187 252 202 236 236 227 223 222 226 224 226 229 228 228 230 233 234 231 235 236 238 241 240 239 245 250 251
261 250 213 223 227 225 212 192 184 193 240 240 229 229 227 229 228 228 228 230 231 233 236 235 235 236 236 240 241 241 241 247 252
257 238 231 227 233 239 228 216 209 201 207 234 230 230 231 230 230 231 231 225 229 232 237 237 238 240 240 241 242 243 242 242 249
254 261 253 265 235 230 233 231 232 226 223 236 233 237 232 236 231 231 232 225 224 219 227 233 235 236 238 239 240 240 240 242 244
245 243 256 260 254 255 251 245 233 234 230 230 238 237 232 233 231 231 228 233 227 226 222 227 236 236 236 236 236 237 240 238 243
245 259 260 261 259 258 249 251 244 237 236 229 231 237 237 232 234 234 235 229 233 228 228 229 233 239 238 242 240 240 239 240 241
253 257 262 261 256 251 252 250 250 249 242 235 230 233 236 238 239 235 235 229 231 231 231 232 235 239 247 245 251 253 243 241 243
258 257 247 257 255 254 254 247 250 249 245 241 241 235 234 237 240 239 238 231 230 234 233 235 240 250 248 254 252 250 254 250 239
244 248 245 246 253 255 257 242 240 243 241 241 242 238 235 237 239 239 235 233 230 232 231 234 237 239 240 242 247 247 246 248 249
235 241 239 243 248 248 238 239 244 235 235 235 236 235 235 236 239 238 234 234 230 230 228 228 235 234 237 245 247 245 244 248 248